TimeCST,TemperatureF,Dew PointF,Humidity,Sea Level PressureIn,VisibilityMPH,Wind Direction,Wind SpeedMPH,Gust SpeedMPH,PrecipitationIn,Events,Conditions,WindDirDegrees,DateUTC
12:53 AM,34.0,26.1,73,30.19,9.0,NW,10.4,-,0.00,Snow,Light Snow,310,2013-02-15 06:53:00
1:32 AM,30.2,24.8,80,30.21,9.0,North,15.0,-,0.00,Snow,Light Snow,360,2013-02-15 07:32:00
1:53 AM,30.9,24.1,76,30.24,8.0,NNW,12.7,-,0.00,Snow,Light Snow,340,2013-02-15 07:53:00
2:53 AM,28.9,16.0,58,30.26,9.0,NNW,16.1,25.3,0.00,,Overcast,340,2013-02-15 08:53:00
3:53 AM,27.0,14.0,58,30.28,10.0,NNW,13.8,20.7,N/A,,Overcast,340,2013-02-15 09:53:00
4:53 AM,23.0,12.0,63,30.32,10.0,NNW,13.8,-,N/A,,Clear,330,2013-02-15 10:53:00
5:53 AM,21.0,9.0,60,30.34,10.0,NNW,10.4,-,N/A,,Clear,340,2013-02-15 11:53:00
6:53 AM,19.0,12.9,77,30.36,10.0,NW,9.2,-,N/A,,Clear,310,2013-02-15 12:53:00
7:53 AM,19.0,12.9,77,30.38,10.0,NW,8.1,-,N/A,,Clear,310,2013-02-15 13:53:00
8:53 AM,21.9,10.9,63,30.40,10.0,NW,11.5,-,N/A,,Clear,320,2013-02-15 14:53:00
9:53 AM,26.1,10.9,53,30.40,10.0,NW,11.5,-,N/A,,Clear,310,2013-02-15 15:53:00
10:53 AM,30.0,6.1,36,30.39,10.0,NNW,10.4,-,N/A,,Partly Cloudy,340,2013-02-15 16:53:00
11:53 AM,33.1,8.1,35,30.38,10.0,NW,12.7,19.6,N/A,,Partly Cloudy,310,2013-02-15 17:53:00
12:53 PM,33.1,12.9,43,30.35,10.0,NNW,13.8,23.0,N/A,,Partly Cloudy,330,2013-02-15 18:53:00
1:53 PM,35.1,12.0,39,30.32,10.0,WNW,17.3,20.7,N/A,,Mostly Cloudy,300,2013-02-15 19:53:00
2:53 PM,35.1,10.9,37,30.31,10.0,NNW,12.7,20.7,N/A,,Mostly Cloudy,330,2013-02-15 20:53:00
3:53 PM,35.1,12.0,39,30.32,10.0,NNW,12.7,-,N/A,,Mostly Cloudy,340,2013-02-15 21:53:00
4:53 PM,33.1,12.0,42,30.32,10.0,NNW,10.4,-,N/A,,Mostly Cloudy,330,2013-02-15 22:53:00
5:53 PM,28.9,12.9,51,30.32,10.0,North,5.8,-,N/A,,Mostly Cloudy,350,2013-02-15 23:53:00
6:53 PM,28.0,12.9,53,30.32,10.0,NNE,5.8,-,N/A,,Mostly Cloudy,20,2013-02-16 00:53:00
7:53 PM,30.0,14.0,51,30.32,10.0,NE,10.4,-,N/A,,Overcast,50,2013-02-16 01:53:00
8:50 PM,26.6,17.6,69,30.30,9.0,Calm,Calm,-,0.00,Snow,Light Snow,0,2013-02-16 02:50:00
8:53 PM,27.0,18.0,69,30.34,9.0,Calm,Calm,-,0.00,Snow,Light Snow,0,2013-02-16 02:53:00
9:02 PM,26.6,19.4,74,30.30,7.0,Calm,Calm,-,0.00,,Overcast,0,2013-02-16 03:02:00
9:53 PM,28.0,18.0,66,30.33,8.0,NNE,5.8,-,0.00,Snow,Light Snow,30,2013-02-16 03:53:00
10:03 PM,26.6,19.4,74,30.30,5.0,Calm,Calm,-,0.00,Snow,Light Snow,0,2013-02-16 04:03:00
10:53 PM,26.1,19.9,78,30.33,6.0,North,4.6,-,0.00,Snow,Light Snow,360,2013-02-16 04:53:00
11:08 PM,26.6,19.4,74,30.30,3.0,North,9.2,-,0.00,Snow,Light Snow,10,2013-02-16 05:08:00
11:53 PM,24.1,19.9,84,30.32,10.0,NW,3.5,-,0.00,,Overcast,310,2013-02-16 05:53:00